633  
ASUS46 KSEW 181110  
RWRWA  
 
WASHINGTON REGIONAL WEATHER ROUNDUP  
NATIONAL WEATHER SERVICE SEATTLE WA  
300 AM PST FRI JAN 18 2019  
 
NOTE:"FAIR" INDICATES FEW OR NO CLOUDS BELOW 12,000 FEET WITH NO  
SIGNIFICANT WEATHER AND/OR S TO VISIBILITY
.  
 
WAZ507-509-555>559-181200-  
SEATTLE, TACOMA, EVERETT, AND VICINITY  
 
CITY SKY/WX TMP DP RH WIND PRES REMARKS
 
EVERETT CLOUDY 47 41 80 SE23G30 29.95R  
BOEING FIELD CLOUDY 48 40 73 S13G21 30.02R  
RENTON CLOUDY 49 40 71 SE8 30.02R  
SEATAC AIRPORT CLOUDY 47 39 74 S14 30.01R  
JBLM-MCCHORD CLOUDY 45 45 100 S13 30.03R  
PUYALLUP CLOUDY 45 43 93 VRB3G12 30.03S  
BREMERTON LGT RAIN 45 43 93 S14G20 29.99  
JBLM-FT LEWIS PTCLDY 43 43 100 SE9 30.02R  
TACOMA NARROWS MOCLDY 45 41 86 S14G26 30.02R  

 
 
WAZ001-503-506-510-514-515-181200-  
NORTH INTERIOR  
 
CITY SKY/WX TMP DP RH WIND PRES REMARKS
 
BELLINGHAM CLOUDY 49 42 77 SE17G28 29.92R  
FRIDAY HARBOR CLOUDY 46 44 93 S3 29.94R  
EASTSOUND CLOUDY 48 46 93 S8 29.92R  
PORT ANGELES LGT RAIN 45 44 97 SW5 29.92R  
EDIZ HOOK LGT RAIN 46 45 96 CALM 29.93R  
PORT TOWNSEND MOCLDY 48 45 87 VRB5 29.91R  
NAS WHIDBEY CLOUDY 52 43 71 SE13G20 29.97R  
ARLINGTON CLOUDY 49 42 77 S22G28 29.97R  
BURLINGTON CLOUDY 50 45 81 S10G21 29.94R  

 
 
WAZ020-022-039-040-504-511-512-181200-  
SOUTHWEST INTERIOR  
 
CITY SKY/WX TMP DP RH WIND PRES REMARKS
 
SHELTON LGT RAIN 46 41 82 SW15G24 29.98R  
OLYMPIA LGT RAIN 45 42 89 S15G21 30.02R  
CHEHALIS CLOUDY 45 45 100 S14 30.04R  
KELSO CLOUDY 46 41 82 SE12G17 30.09R  
VANCOUVER CLOUDY 47 39 74 S8 30.11R  
SCAPPOOSE, OR CLOUDY 47 41 80 SE8 30.10R  
PORTLAND, OR MOCLDY 46 40 79 S15G24 30.10S  

 
 
WAZ021-516-517-181200-  
WASHINGTON COAST  
 
CITY SKY/WX TMP DP RH WIND PRES REMARKS
 
FORKS LGT RAIN 47 30 51 S8G18 29.91R  
HOQUIAM CLOUDY 48 45 89 SE9 29.99R  
ASTORIA, OR CLOUDY 51 45 79 S9 30.03R  

 
 
WAZ019-023-024-040-567>569-181200-  
CASCADE MOUNTAINS AND COLUMBIA GORGE  
 
CITY SKY/WX TMP DP RH WIND PRES REMARKS
 
STAMPEDE PASS FLURRIES 34 31 88 W8 29.93R  
TROUTDALE, OR LGT RAIN 46 41 82 S12G17 30.13R  
HOOD RIVER, OR LGT RAIN 32 32 100 CALM 30.12R  
THE DALLES, OR FOG 32 32 100 CALM 30.14R VSB 1/4  

 
 
WAZ026-027-041>044-520-521-181200-  
EAST SLOPES  
 
CITY SKY/WX TMP DP RH WIND PRES REMARKS
 
OMAK CLOUDY 36 36 100 S9 29.96R  
WENATCHEE CLOUDY 33 31 92 W5 29.97R  
ELLENSBURG CLOUDY 35 32 88 E5 29.99R FOG  
YAKIMA CLOUDY 32 30 92 CALM 30.04R FOG  
SUNNYSIDE ARPT CLOUDY 37 33 86 SE5 30.05R  
YAKIMA TC PTSUNNY 34 32 94 CALM 30.01R FOG  

 
 
WAZ028-034-035-181200-  
COLUMBIA BASIN  
 
CITY SKY/WX TMP DP RH WIND PRES REMARKS
 
EPHRATA FOG 35 35 100 S3 29.98R VSB 1/4  
MOSES LAKE CLOUDY 35 33 92 S7 29.98R  
PASCO CLOUDY 44 34 67 SW16G23 30.06R  
RICHLAND ARPT CLOUDY 44 36 72 SW5 30.05  
HERMISTON, OR MOCLDY 34 30 85 SW9 30.09R  

 
 
WAZ036>038-181200-  
NORTHEAST WASHINGTON  
 
CITY SKY/WX TMP DP RH WIND PRES REMARKS
 
SPOKANE GEIGER FOG 34 32 92 SW8 29.97R VSB 1/2  
SPOKANE FELTS LGT RAIN 37 34 89 SW6 30.00R  
FAIRCHILD AFB FOG 33 33 100 SW10 29.96R VSB 1/2 WCI 24  
COEURDALENE,ID CLOUDY 35 33 92 S6 29.99R  
DEER PARK CLOUDY 34 33 96 S8 29.98R FOG  

 
 
WAZ029>033-181200-  
SOUTHEAST WASHINGTON  
 
CITY SKY/WX TMP DP RH WIND PRES REMARKS
 
PULLMAN PTCLDY 38 33 82 W14 30.02R  
LEWISTON, ID FOG 35 34 96 CALM 30.03S VSB 3/4  
WALLA WALLA PTCLDY 43 32 65 S14 30.07R  
PENDLETON, OR PTCLDY 40 31 70 SW13 30.07R  

 
 
 
CLICK HERE TO GO TO PREVIOUS BULLETINS.

The Nexlab WA Page Main Text Page